Location: Moscow
(55.7500°N, 37.5830°E)
Time: 22:17:54
(UTC+03:00)

COSMOS 2251 DEB - Pass Details

Date: 05 July 2022
Orbit: 738 x 847 km, 74.1° (Epoch: 17 August)

Event Time Altitude Azimuth Distance (km) Brightness Sun altitude
Rises 02:16:27 0° 331° (NNW) 3,262 ? -8.5°
Reaches altitude 10° 02:19:20 10° 345° (NNW) 2,313 ? -8.3°
Maximum altitude 02:23:31 24° 39° (NE) 1,544 ? -8.1°
Drops below altitude 10° 02:27:38 10° 92° (E) 2,264 ? -7.8°
Sets 02:30:24 0° 107° (ESE) 3,177 ? -7.7°
